Regional Weather Roundup
Issued by NWS

Home | Current Version | Previous Version | Text Only | Print | Product List | Glossary On
Versions: 1 2 3 4 5 6 7 8 9 10 11 12 13 14 15 16 17 18 19 20 21 22 23 24 25 26 27 28 29 30 31 32 33 34 35 36 37 38 39 40 41 42 43 44 45 46 47 48 49 50
000
ASUS45 KTFX 291104
RWRMT
MONTANA HOURLY WEATHER ROUNDUP
NATIONAL WEATHER SERVICE GREAT FALLS MT
504 AM MDT TUE JUL 29 2014

NOTE: "FAIR" INDICATES FEW OR NO CLOUDS BELOW 12000 FEET WITH NO
SIGNIFICANT WEATHER AND/OR OBSTRUCTIONS TO VISIBILITY.

* THESE STATIONS ARE NOT UNDER NWS QUALITY CONTROL. THEY DO NOT
   REPORT WEATHER SUCH AS PRECIPITATION OR FOG.

MTZ001>007-043-291200-
WEST OF THE DIVIDE
CITY           SKY/WX    TMP DP  RH WIND       PRES   REMARKS
KALISPELL      CLEAR     52  46  80 CALM      30.13S
MISSOULA       CLEAR     63  41  45 CALM      30.17R
BUTTE          CLEAR     48  39  71 SE5       30.30S
MULLAN PASS    CLEAR     70  37  30 SE3       30.32S
* LINCOLN      N/A       49  45  86 SW2        N/A
* LOOKOUT PASS N/A       62  44  52 SE2        N/A
* POLSON       N/A       61  44  54 N/A        N/A
* RONAN APT    PTCLDY    54  46  74 N/A        N/A
* SEELEY LAKE  N/A       49  43  80 NE1        N/A
* THOMP F APT  CLEAR     60  43  54 NE2        N/A
* YAAK HILL    N/A       58  47  67 N/A        N/A
$$

MTZ008-052>055-291200-
SOUTHWEST MONTANA
CITY           SKY/WX    TMP DP  RH WIND       PRES   REMARKS
BOZEMAN        PTCLDY    57  45  64 S5        30.23S
DILLON         PTCLDY    57  41  55 S6        30.27S
W YELLOWSTONE  CLOUDY    55  52  90 CALM      30.39S
* THREE FORKS  PTCLDY    54  54 100 N/A        N/A
* MONIDA PASS  N/A       53  43  69 E2         N/A
* RAYNOLDS PAS N/A       59  43  56 S2         N/A
* WHITEHALL    N/A       62  45  54 SW3G9      N/A
* WISE RIVER   N/A       49  43  80 W4         N/A
$$

MTZ009>010-012-014-046-048-049-054-291200-
EAST SLOPES AND CENTRAL MONTANA
CITY           SKY/WX    TMP DP  RH WIND       PRES   REMARKS
CUT BANK       CLEAR     54  45  72 N8        30.21S
GREAT FALLS    PTCLDY    59  48  67 S3        30.17S
HELENA         PTCLDY    64  43  47 CALM      30.20R
* CONRAD       CLEAR     50  48  93 N/A        N/A
* DEARBORN     N/A       63  44  50 S2         N/A
* EAST GLACIER N/A       51  46  83 NW6        N/A
* ROGERS PASS  N/A       59  41  51 NW2        N/A
* SAINT MARY   N/A       47  45  93 SE4        N/A
* SWEET GRASS  N/A       65  45  49 S16        N/A
$$

MTZ011-013-016-021-035-040-045-047-050-051-291200-
NORTH CENTRAL MONTANA
CITY           SKY/WX    TMP DP  RH WIND       PRES   REMARKS
HAVRE          CLEAR     61  48  62 E6        30.15S
LEWISTOWN      MOCLDY    70  46  42 SE13G25   30.25R
* CHESTER      N/A       65  50  58 E3         N/A
* DENTON       N/A       65  51  61 SE8        N/A
* JUDITH GAP   N/A       61  43  52 NW3        N/A
* LOMA         N/A       69  47  46 E9         N/A
$$

MTZ017>020-022>027-061-062-291200-
NORTHEAST MONTANA
CITY           SKY/WX    TMP DP  RH WIND       PRES   REMARKS
GLASGOW        CLOUDY    61  48  62 CALM      30.20R
GLENDIVE       PTCLDY    57  48  72 CALM      30.22S
JORDAN         CLOUDY    63  46  54 CALM      30.21R
SIDNEY         PTCLDY    54  48  80 CALM      30.21S
WOLF POINT     CLOUDY    55  48  77 NE5       30.20R
* BEAVER HILL  N/A       61  51  70 S11        N/A
* CIRCLE       N/A       60  51  72 N/A        N/A
* LINDSAY DVD  N/A       58  51  78 N/A        N/A
$$

MTZ028>042-056>058-291200-
SOUTHCENTRAL AND SOUTHEAST MONTANA
CITY           SKY/WX    TMP DP  RH WIND       PRES   REMARKS
BAKER          CLEAR     54  50  86 E6        30.23S
BILLINGS       PTCLDY    66  45  47 N9        30.19S
LIVINGSTON     PTCLDY    57  43  60 CALM      30.26R
MILES CITY     PTCLDY    64  52  65 SE8       30.19S
* LAUREL APT   PTCLDY    66  43  43 N/A        N/A
* ROUNDUP APT  MOCLDY    70  41  35 N11G17     N/A
* ALZADA       N/A       57  50  78 NE7        N/A
* HYSHAM       N/A       67  48  51 NE8        N/A
* LAME DEER    N/A       63  51  65 SE4        N/A
* REED POINT   N/A       58  49  72 N/A        N/A
* ROSCOE HILL  N/A       66  41  40 NW4        N/A
$$

REGIONAL REPORTS...DAKOTAS
CITY           SKY/WX    TMP DP  RH WIND       PRES   REMARKS
WILLISTON      CLEAR     54  50  86 N3        30.20F
DICKINSON      CLEAR     54  48  80 SW3       30.22S
CROSBY         N/A       57  57 100 CALM      30.21S
TIOGA          FOG       50  50 100 E5        30.25F VSB 1 1/4
WATFORD CITY   CLEAR     55  52  90 E3        30.19F
BISMARCK       CLEAR     50  48  93 E3        30.24S
GRAND FORKS    FAIR      52  50  93 CALM      30.17S
FARGO          CLEAR     52  48  86 W3        30.18S
BUFFALO SD     PTCLDY    57  52  83 S5        30.19S
RAPID CITY     PTCLDY    54  48  80 CALM      30.26S
$$

REGIONAL REPORTS...WYOMING/IDAHO/WASHINGTON
CITY           SKY/WX    TMP DP  RH WIND       PRES   REMARKS
GILLETTE       CLOUDY    63  57  81 SW6       30.26F
SHERIDAN       CLOUDY    70  52  53 VRB6      30.24R
YELLOWSTONE LA CLOUDY    54  46  74 CALM      30.49R
SALMON         PTCLDY    55  46  72 SE3       30.22R
MULLAN PASS    CLEAR     70  37  30 SE3       30.32S
SAND POINT     CLEAR     54  54 100 CALM      30.09R
SPOKANE        CLEAR     72  43  35 E3        30.06S

$$




USA.gov is the U.S. government's official web portal to all federal, state and local government web resources and services.